Location: Serin Observatory
(40.5200°N, 74.4500°W)
Time: 05:24:10
(UTC+00:00)

SL-8 R/B - Visible Passes

Search period start: 24 April 2017 00:00
Search period end: 04 May 2017 00:00
Orbit: 657 x 668 km, 48.4° (Epoch: 22 April)

Date Brightness Start Highest point End Pass type
(mag) Time Alt. Az. Time Alt. Az. Time Alt. Az.
24 Apr 5.0 00:56:04 10° WNW 01:00:19 32° SW 01:03:56 13° SSE visible
25 Apr 6.1 01:28:45 10° WSW 01:30:56 13° SW 01:33:08 10° SSW visible
26 Apr 5.3 00:15:45 10° WNW 00:19:57 30° SW 00:24:06 10° SSE visible
27 Apr 6.2 00:48:43 10° WSW 00:50:32 12° SW 00:52:22 10° SSW visible
